TimeCDT,TemperatureF,Dew PointF,Humidity,Sea Level PressureIn,VisibilityMPH,Wind Direction,Wind SpeedMPH,Gust SpeedMPH,PrecipitationIn,Events,Conditions,WindDirDegrees,DateUTC
12:15 AM,57.4,41.7,56,30.03,10.0,East,3.5,-,N/A,,Clear,100,2013-05-08 05:15:00
12:35 AM,56.5,42.1,59,30.03,10.0,Calm,Calm,-,N/A,,Clear,0,2013-05-08 05:35:00
12:55 AM,55.4,42.1,61,30.02,10.0,East,4.6,-,N/A,,Clear,100,2013-05-08 05:55:00
1:15 AM,55.4,41.9,60,30.02,10.0,ESE,3.5,-,N/A,,Clear,110,2013-05-08 06:15:00
1:35 AM,54.5,42.4,64,30.02,10.0,East,4.6,-,N/A,,Clear,90,2013-05-08 06:35:00
1:55 AM,54.0,41.5,63,30.02,10.0,East,4.6,-,N/A,,Clear,80,2013-05-08 06:55:00
2:15 AM,52.2,43.2,71,30.02,10.0,Calm,Calm,-,N/A,,Clear,0,2013-05-08 07:15:00
2:35 AM,52.5,42.3,68,30.02,10.0,Calm,Calm,-,N/A,,Clear,0,2013-05-08 07:35:00
2:55 AM,52.5,42.8,70,30.02,10.0,SE,3.5,-,N/A,,Clear,140,2013-05-08 07:55:00
3:15 AM,51.8,42.1,69,30.02,10.0,SE,3.5,-,N/A,,Clear,130,2013-05-08 08:15:00
3:35 AM,52.3,39.4,61,30.03,10.0,SSE,3.5,-,N/A,,Clear,150,2013-05-08 08:35:00
3:55 AM,52.7,38.1,58,30.03,10.0,Calm,Calm,-,N/A,,Clear,0,2013-05-08 08:55:00
4:15 AM,50.5,39.4,66,30.03,10.0,Calm,Calm,-,N/A,,Clear,0,2013-05-08 09:15:00
4:35 AM,51.3,39.2,63,30.03,10.0,Calm,Calm,-,N/A,,Clear,0,2013-05-08 09:35:00
4:55 AM,50.0,39.6,67,30.03,10.0,Calm,Calm,-,N/A,,Clear,0,2013-05-08 09:55:00
5:15 AM,48.6,40.6,74,30.03,10.0,Calm,Calm,-,N/A,,Clear,0,2013-05-08 10:15:00
5:35 AM,48.6,40.1,73,30.04,10.0,Calm,Calm,-,N/A,,Clear,0,2013-05-08 10:35:00
5:55 AM,49.3,39.2,68,30.04,10.0,Calm,Calm,-,N/A,,Clear,0,2013-05-08 10:55:00
6:15 AM,51.1,38.3,62,30.04,10.0,Calm,Calm,-,N/A,,Clear,0,2013-05-08 11:15:00
6:35 AM,52.2,38.7,60,30.05,10.0,Calm,Calm,-,N/A,,Clear,0,2013-05-08 11:35:00
6:55 AM,53.4,40.5,61,30.05,10.0,Calm,Calm,-,N/A,,Clear,0,2013-05-08 11:55:00
7:15 AM,54.9,40.1,58,30.06,10.0,Calm,Calm,-,N/A,,Clear,0,2013-05-08 12:15:00
7:35 AM,56.1,42.1,59,30.06,10.0,Calm,Calm,-,N/A,,Clear,0,2013-05-08 12:35:00
7:55 AM,56.8,44.4,63,30.06,10.0,Calm,Calm,-,N/A,,Clear,0,2013-05-08 12:55:00
8:15 AM,59.7,43.0,54,30.06,10.0,South,3.5,-,N/A,,Clear,170,2013-05-08 13:15:00
8:35 AM,61.5,40.5,46,30.06,10.0,SSE,3.5,-,N/A,,Clear,160,2013-05-08 13:35:00
8:55 AM,63.5,41.0,44,30.06,10.0,SSE,4.6,-,N/A,,Clear,160,2013-05-08 13:55:00
9:15 AM,65.1,41.4,42,30.06,10.0,SSE,5.8,-,N/A,,Clear,160,2013-05-08 14:15:00
9:35 AM,66.9,39.9,37,30.06,10.0,South,5.8,-,N/A,,Clear,170,2013-05-08 14:35:00
9:55 AM,68.0,38.8,34,30.05,10.0,SSE,4.6,-,N/A,,Clear,150,2013-05-08 14:55:00
10:15 AM,68.7,37.0,31,30.05,10.0,SSW,3.5,-,N/A,,Clear,200,2013-05-08 15:15:00
10:35 AM,69.6,36.3,29,30.05,10.0,Calm,Calm,-,N/A,,Clear,0,2013-05-08 15:35:00
10:55 AM,70.5,33.4,26,30.05,10.0,Calm,Calm,-,N/A,,Clear,0,2013-05-08 15:55:00
11:15 AM,71.4,35.2,27,30.05,10.0,SSE,4.6,-,N/A,,Clear,150,2013-05-08 16:15:00
11:35 AM,72.3,35.6,26,30.05,10.0,SSW,5.8,-,N/A,,Clear,200,2013-05-08 16:35:00
11:55 AM,72.5,36.5,27,30.04,10.0,WSW,3.5,-,N/A,,Clear,250,2013-05-08 16:55:00
12:15 PM,73.8,36.9,26,30.04,10.0,SE,5.8,-,N/A,,Clear,140,2013-05-08 17:15:00
12:35 PM,73.9,35.1,24,30.03,10.0,SW,3.5,-,N/A,,Clear,220,2013-05-08 17:35:00
12:55 PM,74.3,32.5,22,30.03,10.0,Calm,Calm,-,N/A,,Clear,0,2013-05-08 17:55:00
1:15 PM,75.6,34.3,22,30.02,10.0,ESE,5.8,-,N/A,,Clear,120,2013-05-08 18:15:00
1:35 PM,75.9,34.9,22,30.02,10.0,Calm,Calm,-,N/A,,Clear,0,2013-05-08 18:35:00
1:55 PM,76.3,32.0,20,30.02,10.0,West,3.5,-,N/A,,Clear,270,2013-05-08 18:55:00
2:15 PM,77.0,30.9,19,30.02,10.0,ESE,3.5,-,N/A,,Clear,110,2013-05-08 19:15:00
2:35 PM,77.0,29.7,18,30.01,10.0,Calm,Calm,-,N/A,,Scattered Clouds,0,2013-05-08 19:35:00
2:55 PM,75.2,28.0,18,30.01,10.0,Calm,Calm,-,N/A,,Scattered Clouds,0,2013-05-08 19:55:00
3:35 PM,77.7,30.7,18,29.99,10.0,ESE,4.6,-,N/A,,Scattered Clouds,110,2013-05-08 20:35:00
3:55 PM,77.9,32.5,19,29.98,10.0,East,6.9,-,N/A,,Mostly Cloudy,100,2013-05-08 20:55:00
4:15 PM,77.7,32.5,19,29.98,10.0,East,6.9,-,N/A,,Mostly Cloudy,80,2013-05-08 21:15:00
4:35 PM,77.7,32.5,19,29.98,10.0,NE,4.6,-,N/A,,Scattered Clouds,40,2013-05-08 21:35:00
4:55 PM,77.7,27.9,16,29.98,10.0,ENE,4.6,-,N/A,,Clear,70,2013-05-08 21:55:00
5:15 PM,77.4,27.0,16,29.98,10.0,Calm,Calm,-,N/A,,Clear,0,2013-05-08 22:15:00
5:35 PM,77.4,29.5,17,29.97,10.0,East,4.6,-,N/A,,Clear,90,2013-05-08 22:35:00
5:55 PM,74.5,33.3,22,29.97,10.0,SE,4.6,-,N/A,,Clear,130,2013-05-08 22:55:00
6:15 PM,74.7,33.6,22,29.97,10.0,SE,3.5,-,N/A,,Clear,130,2013-05-08 23:15:00
6:35 PM,75.6,34.3,22,29.97,10.0,ESE,3.5,-,N/A,,Clear,120,2013-05-08 23:35:00
6:55 PM,74.8,35.1,23,29.97,10.0,SE,4.6,-,N/A,,Clear,140,2013-05-08 23:55:00
7:15 PM,73.9,36.1,25,29.97,10.0,East,8.1,-,N/A,,Clear,100,2013-05-09 00:15:00
7:35 PM,70.5,38.8,32,29.98,10.0,East,5.8,-,N/A,,Clear,100,2013-05-09 00:35:00
7:55 PM,68.2,42.8,40,29.98,10.0,East,5.8,-,N/A,,Clear,100,2013-05-09 00:55:00
8:15 PM,67.1,39.4,36,29.98,10.0,East,5.8,-,N/A,,Clear,100,2013-05-09 01:15:00
8:35 PM,66.2,39.7,38,29.98,10.0,ESE,5.8,-,N/A,,Clear,110,2013-05-09 01:35:00
8:55 PM,65.3,40.1,40,29.99,10.0,East,6.9,-,N/A,,Clear,100,2013-05-09 01:55:00
9:15 PM,64.6,41.5,43,30.00,10.0,ESE,4.6,-,N/A,,Clear,110,2013-05-09 02:15:00
9:35 PM,63.7,40.3,42,30.00,10.0,East,6.9,-,N/A,,Clear,100,2013-05-09 02:35:00
9:55 PM,62.6,41.7,46,30.00,10.0,ESE,5.8,-,N/A,,Clear,120,2013-05-09 02:55:00
10:15 PM,61.9,41.0,46,30.00,10.0,ESE,4.6,-,N/A,,Clear,120,2013-05-09 03:15:00
10:35 PM,61.7,41.0,47,30.00,10.0,SE,4.6,-,N/A,,Clear,140,2013-05-09 03:35:00
10:55 PM,61.7,38.3,42,29.99,10.0,SE,5.8,-,N/A,,Clear,140,2013-05-09 03:55:00
11:15 PM,60.3,39.9,47,29.99,10.0,ESE,3.5,-,N/A,,Clear,120,2013-05-09 04:15:00
11:55 PM,61.3,38.1,42,29.98,10.0,Calm,Calm,-,N/A,,Clear,0,2013-05-09 04:55:00